Stations météo

réclame
Mon MeteoGroup
Nikkaluokta, Suède (2036): Température de l'air & dewpoint: 14.10.2018 15:00:00 - 20.10.2018 15:00:00 (CEST)Nikkaluokta, Suède (2036): Vitesse du vent & gusts: 14.10.2018 15:00:00 - 20.10.2018 15:00:00 (CEST)Nikkaluokta, Suède (2036): Direction du vent: 14.10.2018 15:00:00 - 20.10.2018 15:00:00 (CEST)Nikkaluokta, Suède (2036): reduced air pressure: 14.10.2018 15:00:00 - 20.10.2018 15:00:00 (CEST)Nikkaluokta, Suède (2036): visibility: 14.10.2018 15:00:00 - 20.10.2018 15:00:00 (CEST)Nikkaluokta, Suède (2036): Quantités de précipitations: 14.10.2018 15:00:00 - 20.10.2018 15:00:00 (CEST)
Date & Time tt [°C] td [°C] ff [km/h] ff [knt] fx [km/h] fx [knt] dd ppp [hPa] vv [km] rr [mm]
20.10.2018 15:00:00 - - - - - - - - - -
20.10.2018 14:00:00 3,4 0,8 - - - - - 1013,9 50 0,0
20.10.2018 13:00:00 2,1 0,5 - - - - - 1014,2 50 0,0
20.10.2018 12:00:00 2,0 0,5 - - - - - 1014,5 50 0,0
20.10.2018 11:00:00 1,3 0,4 - - - - - 1014,6 50 0,0
20.10.2018 10:00:00 0,1 0,0 - - - - - 1014,9 50 0,0
20.10.2018 09:00:00 -0,7 -0,8 - - - - - 1014,8 50 0,0
20.10.2018 08:00:00 -0,8 -0,9 - - - - - 1014,8 50 0,0
20.10.2018 07:00:00 -0,8 -0,9 - - - - - 1014,9 50 0,0
20.10.2018 06:00:00 -1,3 -1,4 - - - - - 1015,0 50 0,0
20.10.2018 05:00:00 -1,7 -1,8 - - - - - 1015,0 50 0,0
20.10.2018 04:00:00 -0,7 -0,8 - - - - - 1015,1 50 0,0
20.10.2018 03:00:00 -0,2 -0,5 - - - - - 1015,3 50 0,0
20.10.2018 02:00:00 -1,3 -1,4 - - - - - 1015,7 15 0,0
20.10.2018 01:00:00 -1,5 -1,6 - - - - - 1016,0 50 0,0
20.10.2018 00:00:00 -3,0 -3,1 - - - - - 1016,2 50 0,0
19.10.2018 23:00:00 -3,8 -3,9 - - - - - 1016,2 50 0,0
19.10.2018 22:00:00 -3,2 -3,3 - - - - - 1016,1 50 0,0
19.10.2018 21:00:00 -2,1 -2,9 - - - - - 1015,7 50 0,0
19.10.2018 20:00:00 -1,4 -2,7 - - - - - 1015,2 50 0,0
19.10.2018 19:00:00 -0,5 -1,8 - - - - - 1014,5 50 0,0
19.10.2018 18:00:00 1,1 -1,6 - - - - - 1013,9 50 0,0
19.10.2018 17:00:00 2,9 -0,7 - - - - - 1013,4 50 0,0
19.10.2018 16:00:00 6,2 -0,3 - - - - - 1012,1 50 0,0
19.10.2018 15:00:00 6,1 0,0 - - - - - 1012,1 50 0,0
19.10.2018 14:00:00 6,8 -0,4 - - - - - 1011,2 50 0,0
19.10.2018 13:00:00 7,5 0,0 - - - - - 1010,1 50 0,0
19.10.2018 12:00:00 7,2 0,2 - - - - - 1009,5 50 0,0
19.10.2018 11:00:00 7,5 0,2 - - - - - 1009,0 50 0,0
19.10.2018 10:00:00 6,8 1,1 - - - - - 1008,4 49 0,0
19.10.2018 09:00:00 4,7 0,6 - - - - - 1008,1 50 0,0
19.10.2018 08:00:00 6,1 0,4 - - - - - 1006,6 50 0,0
19.10.2018 07:00:00 6,4 0,3 - - - - - 1005,5 50 0,0
19.10.2018 06:00:00 6,4 0,3 - - - - - 1004,7 50 0,0
19.10.2018 05:00:00 6,1 0,6 - - - - - 1003,6 50 0,0
19.10.2018 04:00:00 5,7 0,9 - - - - - 1002,9 50 0,0
19.10.2018 03:00:00 6,3 1,0 - - - - - 1002,0 39 0,0
19.10.2018 02:00:00 6,0 1,1 - - - - - 1001,0 50 0,0
19.10.2018 01:00:00 5,6 1,1 - - - - - 1000,3 50 0,0
19.10.2018 00:00:00 5,5 2,0 - - - - - 999,9 16 0,0
18.10.2018 23:00:00 6,3 1,2 - - - - - 999,2 33 0,0
18.10.2018 22:00:00 5,4 0,2 - - - - - 999,0 50 0,0
18.10.2018 21:00:00 4,7 -0,1 - - - - - 998,9 50 0,0
18.10.2018 20:00:00 4,4 0,0 - - - - - 999,2 44 0,0
18.10.2018 19:00:00 3,2 0,1 - - - - - 999,8 50 0,0
18.10.2018 18:00:00 3,5 0,4 - - - - - 1000,2 34 0,0
18.10.2018 17:00:00 4,2 0,2 - - - - - 1000,6 26 0,0
18.10.2018 16:00:00 4,6 -0,6 - - - - - 1000,6 26 0,0
18.10.2018 15:00:00 5,8 -1,6 - - - - - 1000,7 50 0,0
18.10.2018 14:00:00 6,6 -2,8 - - - - - 1000,8 50 0,0
18.10.2018 13:00:00 6,8 -2,4 - - - - - 1001,2 40 0,0
18.10.2018 12:00:00 5,5 -1,7 - - - - - 1001,9 50 0,0
18.10.2018 11:00:00 5,6 -2,0 - - - - - 1002,3 42 0,0
18.10.2018 10:00:00 4,7 -2,4 - - - - - 1002,8 46 0,0
18.10.2018 09:00:00 3,7 -2,9 - - - - - 1003,1 50 0,0
18.10.2018 08:00:00 2,8 -1,4 - - - - - 1003,1 50 0,0
18.10.2018 07:00:00 3,6 -1,2 - - - - - 1003,0 50 0,0
18.10.2018 06:00:00 3,5 -0,5 - - - - - 1003,1 50 0,0
18.10.2018 05:00:00 3,6 -0,2 - - - - - 1003,2 50 0,0
18.10.2018 04:00:00 4,2 -0,2 - - - - - 1003,4 50 0,0
18.10.2018 03:00:00 -0,3 -0,4 - - - - - 1004,4 50 0,0
18.10.2018 02:00:00 -2,5 -2,6 - - - - - 1004,8 6 0,1
18.10.2018 01:00:00 -3,9 -4,0 - - - - - 1005,0 48 0,0
18.10.2018 00:00:00 -3,9 -4,0 - - - - - 1005,2 50 0,0
17.10.2018 23:00:00 -4,1 -4,2 - - - - - 1005,7 50 0,0
17.10.2018 22:00:00 - - - - - - - - - -
17.10.2018 21:00:00 -2,4 -2,5 - - - - - 1005,9 50 0,0
17.10.2018 20:00:00 -2,0 -2,1 - - - - - 1005,9 50 0,0
17.10.2018 19:00:00 -1,3 -1,4 - - - - - 1006,1 50 0,0
17.10.2018 18:00:00 -1,2 -1,8 - - - - - 1006,3 50 0,0
17.10.2018 17:00:00 -0,1 -1,2 - - - - - 1006,5 50 0,0
17.10.2018 16:00:00 2,5 -0,8 - - - - - 1006,0 46 0,0
17.10.2018 15:00:00 4,4 0,0 - - - - - 1006,1 50 0,0
17.10.2018 14:00:00 4,5 0,3 - - 9 5 - 1006,6 50 0,0
17.10.2018 13:00:00 2,8 -0,3 7 4 - - N 1007,4 50 0,0
17.10.2018 12:00:00 2,1 -0,3 4 2 - - NNW 1008,3 50 0,0
17.10.2018 11:00:00 1,7 -0,2 - - - - - 1008,7 50 0,0
17.10.2018 10:00:00 1,5 -0,6 - - - - - 1008,6 50 0,0
17.10.2018 09:00:00 1,3 -0,8 - - - - - 1009,2 50 0,0
17.10.2018 08:00:00 2,1 -0,8 - - - - - 1009,6 50 0,0
17.10.2018 07:00:00 2,6 -0,3 - - - - - 1010,2 50 0,0
17.10.2018 06:00:00 1,6 -0,8 - - - - - 1010,8 50 0,0
17.10.2018 05:00:00 -0,6 -1,3 4 2 15 8 NNW 1011,5 50 0,0
17.10.2018 04:00:00 0,0 -0,8 4 2 14 8 WNW 1012,5 50 0,0
17.10.2018 03:00:00 1,0 -0,8 7 4 14 8 SE 1012,7 50 0,0
17.10.2018 02:00:00 -0,3 -1,1 4 2 14 8 WNW 1013,8 50 0,0
17.10.2018 01:00:00 1,3 -0,6 3 2 14 8 SE 1014,2 50 0,0
17.10.2018 00:00:00 1,5 -0,6 8 5 - - SE 1014,5 50 0,0
16.10.2018 23:00:00 0,7 -1,1 4 2 - - NNE 1014,9 50 0,0
16.10.2018 22:00:00 0,8 -2,1 - - - - - 1015,1 50 0,0
16.10.2018 21:00:00 4,3 -0,7 - - - - - 1014,8 50 0,0
16.10.2018 20:00:00 4,2 -0,8 - - - - - 1014,3 50 0,0
16.10.2018 19:00:00 4,4 -1,0 - - - - - 1014,0 50 0,0
16.10.2018 18:00:00 4,6 -0,4 - - - - - 1013,6 50 0,0
16.10.2018 17:00:00 4,6 -0,8 - - - - - 1013,2 50 0,0
16.10.2018 16:00:00 5,5 -0,8 - - - - - 1012,6 50 0,0
16.10.2018 15:00:00 6,2 -1,6 - - - - - 1011,9 50 0,0
16.10.2018 14:00:00 6,6 -1,3 - - - - - 1011,1 8 0,0
16.10.2018 13:00:00 6,5 -1,4 - - - - - 1010,5 44 0,0
16.10.2018 12:00:00 6,3 -0,9 - - - - - 1009,5 46 0,0
16.10.2018 11:00:00 5,4 -0,7 - - - - - 1009,5 50 0,0
16.10.2018 10:00:00 5,2 -0,2 - - - - - 1009,1 50 0,0
16.10.2018 09:00:00 3,0 -0,5 - - - - - 1009,3 50 0,0
16.10.2018 08:00:00 -0,3 -0,4 - - - - - 1009,6 50 0,0
16.10.2018 07:00:00 -1,9 -2,2 - - - - - 1009,9 50 0,0
16.10.2018 06:00:00 -2,4 -2,5 6 3 11 6 W 1009,7 50 0,0
16.10.2018 05:00:00 -3,6 -3,7 5 3 14 7 WSW 1010,2 50 0,0
16.10.2018 04:00:00 -3,2 -3,3 6 3 14 7 SW 1010,3 50 0,0
16.10.2018 03:00:00 -2,1 -2,4 4 2 - - W 1010,7 50 0,0
16.10.2018 02:00:00 -1,6 -2,2 3 1 - - W 1010,7 50 0,0
16.10.2018 01:00:00 -1,4 -2,1 - - - - - 1011,0 50 0,0
16.10.2018 00:00:00 -0,6 -1,9 - - - - - 1011,1 50 0,0
15.10.2018 23:00:00 0,3 -1,3 - - - - - 1011,4 50 0,0
15.10.2018 22:00:00 1,0 -1,2 - - - - - 1011,5 50 0,0
15.10.2018 21:00:00 0,1 -1,7 - - - - - 1011,8 50 0,0
15.10.2018 20:00:00 2,8 -0,7 - - - - - 1011,6 50 0,0
15.10.2018 19:00:00 2,6 -1,0 - - - - - 1011,3 50 0,0
15.10.2018 18:00:00 4,7 -0,9 - - - - - 1011,0 50 0,0
15.10.2018 17:00:00 4,6 -0,8 - - - - - 1011,3 50 0,0
15.10.2018 16:00:00 5,8 -1,4 - - - - - 1010,7 50 0,0
15.10.2018 15:00:00 6,4 -0,6 - - - - - 1010,1 50 0,0
15.10.2018 14:00:00 6,6 -0,6 - - - - - 1009,9 50 0,0
15.10.2018 13:00:00 7,1 -1,6 - - - - - 1009,4 41 0,0
15.10.2018 12:00:00 7,1 -1,3 - - - - - 1008,8 41 0,0
15.10.2018 11:00:00 5,9 0,2 - - - - - 1007,9 50 0,0
15.10.2018 10:00:00 6,1 -0,9 - - - - - 1006,5 50 0,0
15.10.2018 09:00:00 5,4 -1,1 - - - - - 1005,2 50 0,0
15.10.2018 08:00:00 5,7 -0,2 - - - - - 1004,0 50 0,0
15.10.2018 07:00:00 6,7 0,8 - - - - - 1002,6 50 0,0
15.10.2018 06:00:00 7,8 1,4 - - - - - 1000,9 50 0,0
15.10.2018 05:00:00 8,1 3,2 - - - - - 999,5 50 0,0
15.10.2018 04:00:00 9,5 4,7 - - - - - 998,1 50 0,0
15.10.2018 03:00:00 10,3 5,1 - - - - - 997,5 50 0,0
15.10.2018 02:00:00 10,9 5,2 - - - - - 997,5 27 0,0
15.10.2018 01:00:00 11,6 5,0 - - - - - 997,1 50 0,0
15.10.2018 00:00:00 12,5 4,9 - - - - - 996,9 50 0,0
14.10.2018 23:00:00 12,2 5,6 - - - - - 997,1 50 0,0
14.10.2018 22:00:00 10,3 9,4 - - - - - 998,1 50 0,0
14.10.2018 21:00:00 9,2 9,1 - - - - - 998,3 12 0,0
14.10.2018 20:00:00 8,7 8,3 - - - - - 997,7 50 0,0
14.10.2018 19:00:00 10,5 8,6 - - - - - 997,7 50 0,0
14.10.2018 18:00:00 10,7 8,6 - - - - - 998,9 50 0,0
14.10.2018 17:00:00 11,3 8,9 - - - - - 998,9 50 0,0
14.10.2018 16:00:00 12,5 8,4 - - - - - 999,4 17 0,0
14.10.2018 15:00:00 12,4 8,5 - - - - - 999,5 50 0,0

tt = Température de l'air
td = dewpoint
ff = Vitesse du vent
fx = gusts
dd = Direction du vent
ppp = reduced air pressure
vv = visibility
rr = Quantités de précipitations

stations d'obs. à proximité